Himawari-7

operational
NORAD ID: 28937 Int'l Des: 2006-004 Owner: JCAB/JMA Country: J
HEOCIRCULAR

Himawari-7について

説明を読み込み中...

リアルタイム位置

3D地球を読み込み中...

次回通過

高度履歴

Altitude vs Time

uPlot chart will show altitude changes over time

軌道要素

1 28937U 06004A 26061.59669939 .00000043 00000-0 00000-0 0 9997
2 28937 5.5070 74.3370 0008806 183.6781 160.5258 0.99075176 73166
Epoch: Mar 2, 2026 • Age: 27 hours

現在のステータス

高度 36089.2 km
速度 3.07 km/s
衛星直下点 1.36°N, 41.21°E
打ち上げ日 Feb 18, 2006
運用期間 20 years
タイプ weather

技術仕様

分類 Payload
質量 4650.00 kg
乾燥質量 1700.00 kg
総質量 4650.00 kg
長さ 6.00 m
直径 4.00 m
スパン 30.00 m
形状 Box + Pan + Ant
製造者 MELCO
バスタイプ DS-2000
フェーズステータス In Orbit
所有者/国 JCAB/JMA/J

大規模コンステレーション

Loading constellations...